{"data":{"norad_id":58046,"intl_designator":"2023-156U","name":"STARLINK-30548","alt_names":[],"object_type":"PAYLOAD","status":"ACTIVE","operator":null,"country":"US","launch_date":"2023-10-09","launch_site_code":"AFWTR","launch_vehicle":null,"mission":null,"orbit_class":"UNKNOWN","rcs_meters":null,"size_class":null,"mass_kg":null,"dimensions":null,"purposes":["comms"],"wikipedia_slug":null,"has_3d_model":false,"image_url":null,"decayed_at":null,"tle_current":{"epoch":"2026-05-25T01:52:33.748032Z","epoch_age_seconds":75260,"freshness":"FRESH","line1":"1 58046U 23156U   26145.07816838  .00000624  00000+0  29592-4 0  9991","line2":"2 58046  53.1602 172.9882 0000943  78.7536 281.3573 15.34389985146680","mean_motion":15.34389985,"eccentricity":9.43e-5,"inclination_deg":53.1602,"raan_deg":172.9882,"arg_perigee_deg":78.7536,"mean_anomaly_deg":281.3573,"bstar":2.9592e-5,"rev_number":14668,"period_min":93.848370627888,"perigee_km":462.08791301791,"apogee_km":463.37810110124,"semimajor_km":6840.8700070596,"source":"CELESTRAK","updated_at":"2026-05-25T13:38:18.497910Z"}}}